• Processing (Info)

  • MPEC 2013-V11 : 2013 UV10

    The following Minor Planet Electronic Circular may be linked-to from your own Web pages, but must not otherwise be redistributed electronically.

    A form allowing access to any MPEC is at the bottom of this page.


    Read MPEC 2013-V10 Read MPEC 2013-V12


    M.P.E.C. 2013-V11                                Issued 2013 Nov. 3, 17:52 UT
    
         The Minor Planet Electronic Circulars contain information on unusual
             minor planets and routine data on comets.  They are published
       on behalf of Commission 20 of the International Astronomical Union by the
              Minor Planet Center, Smithsonian Astrophysical Observatory,
                              Cambridge, MA 02138, U.S.A.
    
                 Prepared using the Tamkin Foundation Computer Network
    
                                  MPC@CFA.HARVARD.EDU
                URL https://www.minorplanetcenter.net/    ISSN 1523-6714
    
                                       2013 UV10
    
    Observations:
         K13U10V* C2013 10 31.22624 02 24 01.20 +19 23 25.4          20.8 VqEV011G96
         K13U10V  C2013 10 31.23246 02 24 00.65 +19 23 21.5          20.6 VqEV011G96
         K13U10V  C2013 10 31.23873 02 24 00.17 +19 23 17.4          20.0 VqEV011G96
         K13U10V  C2013 10 31.24495 02 23 59.60 +19 23 13.2          19.6 VqEV011G96
         K13U10V  C2013 10 31.32295 02 23 52.84 +19 22 22.5          20.5 VqEV011G96
         K13U10V  C2013 10 31.33146 02 23 52.16 +19 22 16.7          20.9 VqEV011G96
         K13U10V  C2013 10 31.33996 02 23 51.42 +19 22 11.0          21.0 VqEV011G96
         K13U10V !C2013 10 31.40052 02 23 46.37 +19 21 30.2                tEV011673
         K13U10V !C2013 10 31.41124 02 23 45.38 +19 21 23.5                tEV011673
         K13U10V KC2013 10 31.97100 02 22 59.38 +19 15 10.6          20.3 RqEV011104
         K13U10V KC2013 10 31.99967 02 22 56.98 +19 14 51.3          20.4 RqEV011104
         K13U10V KC2013 11 01.00683 02 22 56.36 +19 14 47.2          20.5 RqEV011104
         K13U10V KC2013 11 01.05635 02 22 52.18 +19 14 12.6          19.9 RqEV011203
         K13U10V KC2013 11 01.08626 02 22 49.64 +19 13 53.3          19.9 RqEV011203
         K13U10V  C2013 11 01.12846002 22 46.92 +19 13 25.6          21.2 RtEV011H01
         K13U10V  C2013 11 01.13329802 22 46.51 +19 13 23.0          20.5 RtEV011H01
         K13U10V IC2013 11 01.14387602 22 45.59 +19 13 16.0          20.2 RtEV011H01
         K13U10V  C2013 11 01.15274202 22 44.83 +19 13 10.5          21.1 RtEV011H01
         K13U10V  C2013 11 02.12268402 21 23.93 +19 02 12.0          20.8 RtEV011H01
         K13U10V  C2013 11 02.12946002 21 23.34 +19 02 07.1          21.3 RtEV011H01
         K13U10V  C2013 11 02.13663502 21 22.74 +19 02 02.3          20.7 RtEV011H01
         K13U10V  C2013 11 02.14313502 21 22.16 +19 01 57.9          21.0 RtEV011H01
         K13U10V  C2013 11 02.15125 02 21 21.50 +19 01 52.7          21.3 RoEV011926
         K13U10V  C2013 11 02.16653 02 21 20.20 +19 01 42.4          21.2 RoEV011926
         K13U10V  C2013 11 02.18312 02 21 18.73 +19 01 31.1          21.6 RoEV011926
         K13U10V KC2013 11 02.25754402 21 12.06 +19 00 39.2          19.9 VuEV011H21
         K13U10V KC2013 11 02.27682902 21 10.37 +19 00 25.5          19.8 VuEV011H21
         K13U10V KC2013 11 03.24271102 19 48.99 +18 49 13.2          21.0 VuEV011H21
         K13U10V KC2013 11 03.26350502 19 47.15 +18 48 59.0          20.7 VuEV011H21
    
    Observer details:
    104 San Marcello Pistoiese.  Observer P. Bacci.  Measurers P. Bacci, L. Tesi,
        G. Fagioli.  0.60-m f/4 reflector + CCD.
    203 GiaGa Observatory.  Observers S. Foglia, G. Galli.  Measurer G. Galli.
        0.28-m f/6.8 Schmidt-Cassegrain + CCD.
    673 Table Mountain Observatory, Wrightwood.  Observer J. Pittichova.  0.60-m
        f/16 Ritchey-Chretien + CCD.
    926 Tenagra II Observatory.  Observers M. Schwartz, P. R. Holvorcem.  0.81-m
        f/7 Ritchey-Chretien + CCD.
    G96 Mt. Lemmon Survey.  Observer A. Boattini.  Measurers A. Boattini,
        E. J. Christensen, A. R. Gibbs, A. D. Grauer, R. E. Hill, J. A. Johnson,
        R. A. Kowalski, S. M. Larson, F. C. Shelly.  1.5-m reflector + CCD.
    H01 Magdalena Ridge Observatory, Socorro.  Observer W. H. Ryan.  2.4-m f/8.9
        reflector + CCD.
    H21 Astronomical Research Observatory, Westfield.  Observer R. Holmes.
        Measurers T. Linder, S. Foglia, L. Buzzi, T. Vorobjov.  0.61-m f/4.5
        astrograph + CCD.
    
    Orbital elements:
    2013 UV10                                                Earth MOID = 0.1643 AU
    Epoch 2013 Nov. 4.0 TT = JDT 2456600.5                  MPC
    M 309.70407              (2000.0)            P               Q
    n   0.32178842     Peri.  270.08917     -0.83507915     -0.53964080
    a   2.1090608      Node   237.25236     +0.54163942     -0.77250257
    e   0.4845631      Incl.    7.30309     +0.09627856     -0.33470522
    P   3.06           H   19.4           G   0.15           U   9
    Residuals in seconds of arc
    131031 G96  0.1+  0.1+    131031 104  0.1-  0.5-    131102 H01  0.1+  0.1+
    131031 G96  0.1-  0.2+    131101 104  0.1-  0.2+    131102 H01  0.2-  0.0
    131031 G96  0.7+  0.2+    131101 203  0.5+  0.8-    131102 926  0.1-  0.1+
    131031 G96  0.1+  0.0     131101 203  0.6+  0.2+    131102 926  0.2+  0.1+
    131031 G96  0.9-  0.4+    131101 H01  0.3+  0.6-    131102 926  0.3-  0.0
    131031 G96  0.2-  0.2+    131101 H01  0.3+  0.0     131102 H21  0.3+  0.0
    131031 G96  0.3-  0.1+    131101 H01  0.1+  0.0     131102 H21  0.2+  0.3-
    131031 673  0.6+  0.3-    131101 H01  0.0   0.3+    131103 H21  0.1-  0.1-
    131031 673  0.5-  0.2+    131102 H01  0.0   0.4+    131103 H21  0.2-  0.4+
    131031 104  1.0-  0.5-    131102 H01  0.1-  0.0
    
    Ephemeris:
    2013 UV10                a,e,i = 2.11, 0.48, 7                   q = 1.0871
    Date    TT    R. A. (2000) Decl.     Delta      r     Elong.  Phase     V
    2013 10 04    02 50 16.7 +22 27 15   1.1823  2.0738   143.5    16.7    22.2
    ...
    2013 10 19    02 38 56.3 +21 14 13   1.0165  1.9846   160.9     9.5    21.5
    ...
    2013 10 27    02 29 37.5 +20 07 00   0.9484  1.9357   170.6     4.8    21.1
    ...
    2013 11 02    02 21 33.8 +19 03 40   0.9077  1.8985   175.3     2.5    20.9
    2013 11 03    02 20 09.7 +18 52 08   0.9019  1.8922   175.1     2.6    20.8
    2013 11 04    02 18 44.8 +18 40 20   0.8962  1.8860   174.6     2.8    20.8
    ...
    2013 11 10    02 10 09.9 +17 24 57   0.8680  1.8482   168.0     6.4    20.9
    ...
    2013 11 18    01 59 06.9 +15 36 30   0.8443  1.7972   157.3    12.2    21.0
    ...
    2013 12 03    01 43 06.0 +12 18 44   0.8371  1.7001   137.5    23.0    21.3
    
    A. U. Tomatic                (C) Copyright 2013 MPC           M.P.E.C. 2013-V11
    

    Read MPEC 2013-V10 Read MPEC 2013-V12


    MPEC number:

    Enter an MPEC number in one of the following forms:

    • 1997-B01 (the full form)
    • J97B01 (the packed version of the full form)
    • B01 (the abbreviated form)